Location: Bushrod
(6.3500°N, 10.7833°W)
Time: 06:14:03
(UTC+00:00)

Daily predictions for brighter satellites

Satellite Brightness Start Highest point End
(mag) Time Altitude Azimuth Time Altitude Azimuth Time Altitude Azimuth
NOAA 12 4.1 18:52:56 10° SSE 18:58:09 69° ENE 19:03:19 10° N
Cosmos 1048 Rocket 4.2 18:57:55 10° NNW 19:03:11 86° WSW 19:08:32 10° S
YAOGAN 1 3.5 19:00:08 10° SE 19:03:45 26° ENE 19:07:22 10° NNE
Cosmos 1975 3.2 19:00:36 10° S 19:04:33 69° W 19:08:28 10° N
ARIANE 5 DEB (SYLDA) 3.6 18:59:20 10° W 19:05:07 52° S 19:08:40 10° ESE
ARIANE 5 R/B 4.2 19:06:17 10° SW 19:09:06 28° SSE 19:17:51 10° ESE
Cosmos 2219 3.7 19:04:45 10° S 19:10:02 38° ESE 19:15:18 10° NE
Cosmos 2227 Rocket 3.4 19:07:40 10° SSE 19:11:30 19° ESE 19:15:21 10° ENE
Ariane H10+ 3.8 19:04:37 10° WSW 19:13:48 22° SSW 19:17:07 10° SSE
SWIFT 3.8 19:10:24 10° NW 19:13:53 24° NNE 19:17:14 11° ENE
Meteor 2-9 Rocket 4.3 19:08:47 10° S 19:14:39 81° E 19:20:27 10° N
EXPRESS MD2 4.1 19:12:46 10° NW 19:15:49 34° WSW 19:17:57 10° SSE
SEDSat Delta rocket 3.2 19:15:08 10° WNW 19:19:12 61° SSW 19:23:11 10° SE
Cosmos 2360 Rocket 3.4 19:15:42 10° NNE 19:19:44 20° ENE 19:23:07 12° ESE
Cosmos 2297 Rocket 3.0 19:17:52 10° SSE 19:22:35 27° ESE 19:27:16 10° NE
Cosmos 2151 Rocket 4.4 19:21:12 10° SSW 19:25:34 55° W 19:29:52 10° N
Envisat 3.3 19:25:25 10° S 19:30:28 72° WSW 19:35:31 10° NNW
Okean 2 3.3 19:28:50 10° N 19:32:55 72° E 19:37:02 10° S
Cosmos 1544 2.9 19:29:39 10° S 19:33:13 68° E 19:36:46 10° N
Cosmos 405 3.2 19:30:01 10° NNE 19:33:18 42° E 19:36:36 10° SSE
APEX 4.0 19:30:56 10° NW 19:33:28 36° WSW 19:36:01 10° S
Cosmos 1842 4.3 19:30:22 10° NNE 19:33:34 24° E 19:34:16 23° ESE
Lacrosse 4 Rocket 2.0 19:30:24 10° N 19:34:03 33° ENE 19:35:59 21° ESE
GPS 2-15 Rocket1 3.5 19:30:56 10° SW 19:35:24 46° SSE 19:37:53 24° E
CZ-4 R/B 1.8 19:33:23 10° S 19:37:11 62° WSW 19:40:59 10° NNW
SL-16 R/B 2.3 19:33:09 10° NNW 19:38:48 79° WSW 19:44:27 10° SSE
ADEOS Rocket 4.1 19:33:43 10° NE 19:40:29 33° ESE 19:47:12 10° SSE
CZ-2C R/B 3.0 19:39:33 10° S 19:42:03 75° W 19:52:22 10° N
CZ-2C R/B 3.5 19:39:01 10° NNE 19:43:24 68° ESE 19:47:48 10° S
GPS 2-04 Rocket1 4.1 19:44:57 10° SSW 19:47:32 22° SSE 19:47:32 22° SSE
Cosmos 1441 Rocket 3.9 19:44:25 10° SSW 19:48:15 57° W 19:52:02 10° N
Spelda 3.6 19:42:42 10° W 19:50:49 67° S 19:51:51 41° ESE
CSL-04 Rocket 4.3 19:53:52 10° S 19:59:08 58° WSW 20:04:30 10° NNW
Cosmos 2074 Rocket 3.9 19:53:46 10° N 19:59:56 70° E 20:06:06 10° S
ASTEX 1 3.3 19:57:29 10° NNE 20:02:18 64° E 20:07:10 10° S
H-II Stage 2 4.4 19:48:28 10° WSW 20:11:00 52° SSE 20:12:30 42° ESE
COSMOS 2455 4.2 20:07:40 10° NNE 20:10:17 21° NNE 20:10:17 21° NNE
Ariane Rocket 2.8 20:08:02 12° SSE 20:12:44 86° ENE 20:17:47 10° N
Cosmos 1939 Rocket 2.8 20:12:39 57° SSW 20:13:20 75° W 20:17:11 10° NNW
Cosmos 2056 Rocket 3.9 20:14:03 10° SSW 20:19:22 66° WNW 20:24:44 10° N
Ariane H10 3.5 20:00:31 10° WSW 20:20:15 50° S 20:21:36 42° SE
Cosmos 2154 Rocket 3.9 20:15:24 10° N 20:21:10 57° ENE 20:21:10 57° ENE
ARIANE 5 R/B 4.1 20:20:27 10° SW 20:21:29 21° SSW 20:21:29 21° SSW
ASC 2 Rocket 4.3 20:16:14 10° WSW 20:23:58 55° NNW 20:25:34 42° NNE
Skynet4D Del rocket 4.5 20:19:42 10° WNW 20:27:10 74° SSW 20:29:35 49° SE
Lacrosse 5 rocket 4.3 20:28:41 10° WNW 20:29:22 10° WNW 20:30:01 10° NW
Cosmos 2322 Rocket 4.3 20:27:41 10° NW 20:32:05 24° WSW 20:36:30 10° SSW
ARIANE 5 R/B 3.7 20:30:26 10° W 20:34:13 89° S 20:35:58 58° E
CZ-3B R/B 4.2 19:53:45 10° WNW 20:35:41 84° SSW 20:39:41 48° SE
USA 267 3.9 20:37:51 40° S 20:37:51 40° S 20:42:15 10° SSW
Cosmos 2082 4.0 20:30:51 10° SSW 20:35:21 58° SSW 20:35:21 58° SSW
Cosmos 2237 4.5 20:32:06 10° NNW 20:37:45 65° WSW 20:38:52 53° SSW
Lacrosse 5 4.3 20:45:55 10° SSW 20:46:25 13° SSW 20:46:25 13° SSW
Cosmos 2227 Rocket 3.9 20:50:24 10° SW 20:55:14 30° WNW 21:00:05 10° NNW
Ariane H10+ 4.4 20:45:27 10° W 20:55:23 45° SSW 20:55:23 45° SSW
Cosmos 2360 Rocket 3.9 20:58:41 10° NW 21:03:27 29° WSW 21:05:02 25° SW
Cosmos 2297 Rocket 4.5 21:02:12 10° WSW 21:06:21 21° WNW 21:10:30 10° NNW
CZ-3B R/B 4.0 21:11:28 10° SW 21:23:50 43° SSW 21:23:50 43° SSW
